GW6643 Weather Reports


Display with metric or nautical units.
time (UTC)temp
F
wind
direction
speed
MPH
gust
MPH
rain 1hr
in
rain 24hr
in
rain mn
in
humidity
%
barometer
mb
20260506024205 29 117 0.0 0.0 0.00 0.00 0.00 93 1012.7
20260506023705 29 117 0.0 0.0 0.00 0.00 0.00 93 1012.8
20260506023204 29 117 0.0 0.0 0.00 0.00 0.00 93 1012.7
20260506022705 29 117 0.0 0.0 0.00 0.00 0.00 93 1012.8
20260506022204 29 117 0.0 0.0 0.00 0.00 0.00 93 1012.8
20260506021704 29 117 0.0 0.0 0.00 0.00 0.00 93 1012.8
20260506021204 29 117 0.0 0.0 0.00 0.00 0.00 92 1012.8
20260506020705 30 117 0.0 0.0 0.00 0.00 0.00 92 1013.0
20260506020204 30 117 0.0 0.0 0.00 0.00 0.00 92 1013.0
20260506015705 30 117 0.0 0.0 0.00 0.00 0.00 92 1013.0
20260506015205 30 117 0.0 0.0 0.00 0.00 0.00 92 1012.7
20260506013705 30 117 0.0 0.0 0.00 0.00 0.00 92 1012.8
20260506013205 30 117 0.0 0.0 0.00 0.00 0.00 92 1012.8
20260506012705 30 117 0.0 0.0 0.00 0.00 0.00 92 1012.8
20260506012204 30 117 0.0 0.0 0.00 0.00 0.00 92 1013.0
20260506011704 31 117 0.0 0.0 0.00 0.00 0.00 92 1013.0
20260506011204 31 117 0.0 0.0 0.00 0.00 0.00 92 1013.0
20260506010705 31 117 0.0 0.0 0.00 0.00 0.00 92 1013.0
20260506005704 31 117 0.0 0.0 0.00 0.00 0.00 92 1013.1
20260506005205 31 117 0.0 0.0 0.00 0.00 0.00 92 1013.1
20260506004704 31 117 0.0 0.0 0.00 0.00 0.00 92 1013.2
20260506004205 31 117 0.0 0.0 0.00 0.00 0.00 92 1013.2
20260506003705 31 117 0.0 0.0 0.00 0.00 0.00 92 1013.3
20260506003205 31 117 0.0 0.0 0.00 0.00 0.00 92 1013.3
20260506002204 31 117 0.0 0.0 0.00 0.00 0.00 91 1013.3
20260506001705 32 117 0.0 0.0 0.00 0.00 0.00 92 1013.3
20260506000704 32 117 0.0 0.0 0.00 0.00 0.00 92 1013.4
20260506000205 32 117 0.0 0.0 0.00 0.00 0.00 92 1013.3
20260505235704 32 117 0.0 0.0 0.00 0.00 0.00 91 1013.3
20260505234704 32 117 0.0 0.0 0.00 0.00 0.00 91 1013.3
20260505234205 32 117 0.0 0.0 0.00 0.00 0.00 91 1013.3
20260505233704 33 117 0.0 0.0 0.00 0.00 0.00 91 1013.4
20260505233204 33 117 0.0 0.0 0.00 0.00 0.00 91 1013.4
20260505232705 33 117 0.0 0.0 0.00 0.00 0.00 91 1013.4
20260505232205 33 117 0.0 0.0 0.00 0.00 0.00 91 1013.4
20260505231205 33 117 0.0 0.0 0.00 0.00 0.00 91 1013.3
20260505225705 33 117 0.0 0.0 0.00 0.00 0.00 90 1013.4
20260505224705 34 117 0.0 0.0 0.00 0.00 0.00 90 1013.3
20260505224205 34 117 0.0 0.0 0.00 0.00 0.00 90 1013.4
20260505223704 34 117 0.0 0.0 0.00 0.00 0.00 90 1013.4
20260505223204 34 117 0.0 1.0 0.00 0.00 0.00 90 1013.4
20260505222704 34 117 0.0 3.0 0.00 0.00 0.00 90 1013.5
20260505222205 34 117 0.0 3.0 0.00 0.00 0.00 89 1013.6
20260505221705 35 117 0.0 3.0 0.00 0.00 0.00 90 1013.5
20260505221205 35 117 2.0 3.0 0.00 0.00 0.00 89 1013.6
20260505220705 35 117 2.0 3.0 0.00 0.00 0.00 89 1013.6
20260505215704 36 117 1.0 2.0 0.00 0.00 0.00 89 1013.6
20260505215205 36 117 1.0 2.0 0.00 0.00 0.00 89 1013.6
20260505214704 36 117 0.0 2.0 0.00 0.00 0.00 89 1013.6
20260505214204 36 117 1.0 2.0 0.00 0.00 0.00 88 1013.8
20260505213704 36 117 0.0 3.0 0.00 0.00 0.00 89 1013.9
20260505213204 36 117 0.0 3.0 0.00 0.00 0.00 88 1013.9
20260505212704 36 117 1.0 0.0 0.00 0.00 0.00 88 1013.9
20260505212205 36 118 0.0 0.0 0.00 0.00 0.00 87 1013.8
20260505211705 37 118 0.0 0.0 0.00 0.00 0.00 87 1013.9
20260505211205 37 118 0.0 0.0 0.00 0.00 0.00 87 1013.8
20260505210704 37 118 0.0 3.0 0.00 0.00 0.00 86 1013.9
20260505205705 38 118 0.0 3.0 0.00 0.00 0.00 85 1013.9
20260505204704 38 118 1.0 2.0 0.00 0.00 0.00 85 1013.8
20260505204205 38 118 0.0 2.0 0.00 0.00 0.00 84 1013.6
20260505203705 38 118 0.0 2.0 0.00 0.00 0.00 83 1013.5
20260505202705 39 118 0.0 2.0 0.00 0.00 0.00 82 1013.4
20260505202204 39 118 0.0 4.0 0.00 0.00 0.00 81 1013.3
20260505201705 40 118 1.0 4.0 0.00 0.00 0.00 80 1013.3
20260505201205 40 118 1.0 4.0 0.00 0.00 0.00 79 1013.3
20260505200705 41 118 2.0 4.0 0.00 0.00 0.00 78 1013.3
20260505200204 42 118 2.0 7.0 0.00 0.00 0.00 77 1013.2
20260505195205 43 97 2.0 7.0 0.00 0.00 0.00 76 1013.0
20260505194705 43 347 5.0 7.0 0.00 0.00 0.00 75 1013.0
20260505194204 44 321 1.0 7.0 0.00 0.00 0.00 75 1012.7
20260505193705 44 10 2.0 7.0 0.00 0.00 0.00 75 1012.7
20260505193205 43 7 5.0 7.0 0.00 0.00 0.00 74 1012.6
20260505192204 45 279 0.0 2.0 0.00 0.00 0.00 68 1012.5
20260505191705 46 279 0.0 2.0 0.00 0.00 0.00 65 1012.4
20260505191204 46 279 0.0 6.0 0.00 0.00 0.00 61 1012.4
20260505190705 47 279 0.0 6.0 0.00 0.00 0.00 59 1012.4
20260505190204 47 279 2.0 6.0 0.00 0.00 0.00 57 1012.3
20260505185205 48 275 2.0 6.0 0.00 0.00 0.00 59 1012.2
20260505184704 49 275 3.0 7.0 0.00 0.00 0.00 56 1012.2
20260505183704 50 286 4.0 7.0 0.00 0.00 0.00 53 1012.1
20260505183204 50 282 4.0 10.0 0.00 0.00 0.00 53 1012.1
20260505182205 50 286 4.0 10.0 0.00 0.00 0.00 52 1011.8
20260505181704 51 292 7.0 12.0 0.00 0.00 0.00 50 1012.1
20260505180204 53 298 3.0 10.0 0.00 0.00 0.00 51 1011.5
20260505175704 53 275 4.0 10.0 0.00 0.00 0.00 51 1011.4
20260505175204 53 258 4.0 11.0 0.00 0.00 0.00 52 1011.5
20260505174705 52 279 4.0 15.0 0.00 0.00 0.00 53 1011.3
20260505174205 52 312 4.0 15.0 0.00 0.00 0.00 54 1011.3
20260505173705 51 305 5.0 15.0 0.00 0.00 0.00 51 1011.4
20260505173205 52 305 7.0 11.0 0.00 0.00 0.00 52 1011.8
20260505172705 52 286 4.0 13.0 0.00 0.00 0.00 53 1011.7
20260505172205 52 217 5.0 13.0 0.00 0.00 0.00 52 1011.5
20260505171705 52 259 6.0 13.0 0.00 0.00 0.00 54 1011.4
20260505171204 51 264 6.0 13.0 0.00 0.00 0.00 53 1011.5
20260505170721 51 295 6.0 13.0 0.00 0.00 0.00 51 1011.7
20260505170205 52 248 8.0 21.0 0.00 0.00 0.00 51 1011.7
20260505165705 52 206 5.0 21.0 0.00 0.00 0.00 51 1011.7
20260505165205 52 250 6.0 21.0 0.00 0.00 0.00 50 1010.7
20260505164705 53 264 13.0 13.0 0.00 0.00 0.00 51 1011.7
20260505163705 52 259 4.0 13.0 0.00 0.00 0.00 56 1011.7
20260505162705 51 276 4.0 11.0 0.00 0.00 0.00 56 1011.8
20260505162205 52 307 6.0 11.0 0.00 0.00 0.00 56 1011.7
20260505161704 53 324 5.0 16.0 0.00 0.00 0.00 56 1011.7
20260505160705 52 257 6.0 16.0 0.00 0.00 0.00 55 1011.5
20260505160205 52 250 10.0 16.0 0.00 0.00 0.00 53 1011.7
20260505153205 53 330 6.0 13.0 0.00 0.00 0.00 58 1011.7
20260505152705 53 320 5.0 13.0 0.00 0.00 0.00 60 1011.6
20260505152205 52 300 5.0 17.0 0.00 0.00 0.00 61 1011.6
20260505150705 51 313 6.0 17.0 0.00 0.00 0.00 59 1011.6
20260505130205 52 193 6.0 14.0 0.00 0.17 0.00 54 1012.2
20260505124704 51 247 4.0 12.0 0.00 0.21 0.00 62 1012.2
20260505123705 51 261 8.0 13.0 0.00 0.21 0.00 59 1012.3
20260505123204 51 309 3.0 13.0 0.00 0.21 0.00 60 1012.3
20260505122704 51 234 4.0 12.0 0.00 0.21 0.00 61 1012.4
20260505121222 50 212 4.0 17.0 0.00 0.21 0.00 54 1012.3
20260505120704 52 275 6.0 17.0 0.00 0.21 0.00 55 1012.3
20260505120204 52 262 3.0 17.0 0.00 0.21 0.00 58 1012.3
20260505115704 52 213 8.0 12.0 0.00 0.21 0.00 60 1012.5
20260505115205 52 252 1.0 12.0 0.00 0.21 0.00 54 1012.5
20260505114704 52 230 7.0 11.0 0.00 0.21 0.00 56 1012.5
20260505114205 53 257 4.0 11.0 0.00 0.21 0.00 57 1012.4
20260505113705 53 212 2.0 13.0 0.00 0.21 0.00 56 1012.5
20260505113204 53 220 7.0 13.0 0.00 0.21 0.00 58 1012.6
20260505112226 53 203 8.0 13.0 0.00 0.22 0.00 54 1012.5
20260505111704 53 200 3.0 13.0 0.00 0.26 0.00 58 1012.5
20260505111205 53 226 2.0 13.0 0.00 0.27 0.00 60 1012.5
20260505110705 52 164 5.0 10.0 0.00 0.27 0.00 59 1012.7
20260505110233 52 175 3.0 12.0 0.00 0.27 0.00 56 1012.7
20260505102205 49 252 4.0 16.0 0.00 0.27 0.00 55 1012.8
20260505101721 49 220 5.0 16.0 0.00 0.27 0.00 56 1012.8
20260505101205 49 148 4.0 13.0 0.00 0.27 0.00 58 1012.8
20260505100204 50 189 7.0 14.0 0.00 0.27 0.00 57 1013.0
20260505095704 51 274 9.0 14.0 0.00 0.27 0.00 56 1012.8
20260505094705 50 195 3.0 13.0 0.00 0.27 0.00 64 1012.7
20260505094205 49 282 3.0 14.0 0.00 0.27 0.00 60 1012.7
20260505093204 49 272 7.0 15.0 0.00 0.27 0.00 61 1012.7
20260505092705 48 241 8.0 16.0 0.00 0.27 0.00 64 1012.8
20260505092205 48 275 5.0 18.0 0.00 0.27 0.00 65 1012.8
20260505091704 49 310 7.0 18.0 0.00 0.27 0.00 64 1012.8
20260505091204 50 313 5.0 6.0 0.00 0.27 0.00 69 1012.7
20260505090204 48 200 4.0 16.0 0.00 0.27 0.00 71 1012.6
20260505085205 49 247 7.0 19.0 0.00 0.27 0.00 71 1012.7
20260505084705 49 319 11.0 14.0 0.00 0.27 0.00 72 1012.7
20260505083704 49 217 3.0 10.0 0.00 0.27 0.00 73 1012.7
20260505083204 49 281 3.0 10.0 0.00 0.27 0.00 75 1012.8
20260505082705 49 296 6.0 10.0 0.00 0.27 0.00 77 1012.8
20260505082204 48 285 5.0 9.0 0.00 0.27 0.00 80 1012.7
20260505081204 45 275 4.0 10.0 0.00 0.27 0.00 84 1012.8
20260505080705 45 307 4.0 10.0 0.00 0.27 0.00 86 1013.0
20260505080205 45 288 5.0 5.0 0.00 0.27 0.00 88 1013.0
20260505075705 45 320 2.0 5.0 0.00 0.27 0.00 90 1013.0
20260505075204 45 324 3.0 5.0 0.00 0.27 0.00 91 1013.0
20260505074705 45 316 4.0 4.0 0.00 0.27 0.00 91 1013.1
20260505073704 45 290 2.0 4.0 0.00 0.27 0.00 93 1013.1
20260505073204 45 13 1.0 2.0 0.00 0.27 0.00 94 1013.0
20260505071704 45 61 0.0 2.0 0.00 0.27 0.00 95 1013.0
20260505071204 44 63 0.0 2.0 0.00 0.27 0.00 95 1012.8
20260505070704 43 63 0.0 2.0 0.00 0.27 0.00 96 1012.8
20260505065704 42 63 0.0 2.0 0.00 0.27 0.00 96 1013.0
20260505065205 41 63 0.0 2.0 0.00 0.27 0.00 95 1013.0
20260505064704 40 63 1.0 3.0 0.00 0.27 0.00 95 1013.0
20260505064205 40 63 0.0 4.0 0.00 0.27 0.00 95 1013.0
20260505063705 39 63 1.0 4.0 0.00 0.27 0.00 95 1013.0
20260505063205 39 63 2.0 3.0 0.00 0.27 0.00 95 1012.8
20260505062705 38 28 1.0 2.0 0.00 0.27 0.00 95 1013.0
20260505061705 37 316 0.0 0.0 0.00 0.27 0.00 95 1013.1
20260505061205 36 316 0.0 1.0 0.00 0.27 0.00 95 1013.0
20260505060705 36 316 0.0 5.0 0.00 0.27 0.00 95 1013.1
20260505060205 36 316 0.0 5.0 0.00 0.27 0.00 95 1013.1
20260505055204 35 316 4.0 4.0 0.00 0.27 0.00 95 1013.1
20260505054205 35 224 0.0 2.0 0.00 0.27 0.00 94 1013.0
20260505053705 35 224 0.0 2.0 0.00 0.27 0.00 94 1013.0
20260505052705 35 223 0.0 3.0 0.00 0.27 0.00 94 1012.8
20260505052204 35 223 0.0 3.0 0.00 0.28 0.00 94 1012.8
20260505051704 35 223 2.0 1.0 0.00 0.28 0.00 94 1012.8
20260505051205 35 180 0.0 0.0 0.00 0.28 0.00 94 1012.8
20260505050705 35 180 0.0 0.0 0.00 0.31 0.00 94 1012.7
20260505050204 35 180 0.0 0.0 0.00 0.38 0.00 94 1012.7
20260505041705 35 180 0.0 0.0 0.00 0.74 0.00 94 1012.8
20260505041205 35 180 0.0 0.0 0.00 0.74 0.00 94 1013.0
20260505040205 35 180 0.0 0.0 0.00 0.74 0.00 94 1013.0
20260505035705 35 180 0.0 0.0 0.00 0.74 0.00 94 1013.0
20260505035204 35 179 0.0 0.0 0.00 0.74 0.00 94 1013.0
20260505034704 35 179 0.0 0.0 0.00 0.75 0.00 94 1013.0
20260505034205 35 179 0.0 1.0 0.00 0.75 0.00 94 1013.0
20260505033705 35 179 0.0 1.0 0.00 0.76 0.00 94 1013.1
20260505033204 34 179 0.0 2.0 0.00 0.76 0.00 94 1013.1
20260505032705 34 179 0.0 2.0 0.00 0.76 0.00 94 1013.2
20260505032205 34 179 0.0 2.0 0.00 0.76 0.00 94 1013.3
20260505031704 34 179 1.0 2.0 0.00 0.76 0.00 94 1013.3
20260505031205 33 179 1.0 2.0 0.00 0.76 0.00 94 1013.2
20260505030705 33 179 0.0 2.0 0.00 0.76 0.00 94 1013.3
20260505030205 33 179 1.0 0.0 0.00 0.76 0.00 94 1013.3
20260505025704 33 178 0.0 0.0 0.00 0.76 0.00 94 1013.2
20260505025205 33 178 0.0 0.0 0.00 0.76 0.00 94 1013.2
20260505024704 33 178 0.0 0.0 0.00 0.76 0.00 94 1013.2